Погода в Жиганске

Погода в Жиганске : погода сейчас, прогноз погоды и архив. Всё, что Вы хотите узнать о погоде в Жиганске!

Хотите узнать прогноз погоды в Жиганске? Тогда Вам сюда: Погода в Жиганске

Поиск расширенной информации на нашем сайте:

Полезная информация: стоматология в москве

Другие новости

Новости СМИ2

Главная страница сайта

Новости сайта

03.07.2017

Напоминаем, что на нашем специализированном сайте Метеоцентр.Азия вы можете получить высокодетализированные автоматические прогнозы погоды по пунктам России, СНГ и мира в авиационном формате (включающие направление и скорость ветра, видимость, явления погоды, количество и форму облачности, нижнюю и верхнюю границу облачности).

Рекомендуем: Портал о строительстве http://geos-inform.com

Погода в Жиганске - сегодня

Время (UTC), дата Ветер
(°,м/с) 
Видим.   Явления Облачность Т
(°С)
Тd
(°С)
f(%) Тe
(°С)
Pmin
(гПа)
dP
(гПа)
Po
(мм)
O2
(г/м3)
Тmin Tmax R s Состояние
почвы
00 22.11.17 120 (ЮВ) 20000 м  слаб. снег  10/6 630 м верхняя 
[St|Cs]
-28.6 -31 80 -29  1011.7  0.1  749  339  -30.1    0.0  34  равномерный
сухой снег
100% 
03 22.11.17 350 (С) 20000 м  {снег}  10/4 600 м верхняя 
[Sc|Cs]
-21 -23.5 80 -25  1012.3  750  329           
06 22.11.17 350 (С) 3{11}  20000 м  слаб. снег  10/4 1000 м средняя, верхняя 
[Sc|As trans|Cs]
-20.7 -23.2 80 -25  1014  1.7  751  329           
09 22.11.17 350 (С) 3{12}  4000 м  позёмок{снег}  5/0 средняя 
[Ac trans]
-22.3 -24.9 79 -27  1015.4  1.2  752  332           
12 22.11.17 340 (С) 4{10}  20000 м  позёмок{снег}  8/0 средняя, верхняя 
[Ac trans|Ci sp]
-22.9 -25.5 79 -29  1016.7  1.3  753  333    -19.5  0.2     
15 22.11.17 340 (С) 20000 м  позёмок  5/0 верхняя 
[Ci sp]
-23.3 -25.8 80 -29  1017.4  0.7  753  334           
18 22.11.17 350 (С) 20000 м    5/0 верхняя 
[Ci sp]
-23.6 -26.2 79 -28  1018.5  1.1  754  334           
21 22.11.17 350 (С) 20000 м    4/0 верхняя 
[Ci sp]
-23.7 -26.3 79 -30  1019.6  1.1  755  335           
00 23.11.17 010 (С) 4-10{10}  20000 м  в посл. час снег  10/0 верхняя 
[Cs]
-23.7 -27 74 -30  1020.4  0.8  756  335  -23.8    0.0  33  равномерный
сухой снег
100% 
03 23.11.17 360 (С) 4-10{10}  20000 м  позёмок  10/0 верхняя 
[Cs]
-23.9 -26.4 80 -30  1021.6  1.2  757  336  -24         
06 23.11.17 360 (С) 3{10}  20000 м  позёмок  10/0 средняя 
[As op]
-24.9 -27.4 80 -30  1022.9  1.2  758  338           
09 23.11.17 010 (С) 5-10{10}  20000 м  слаб. снег  10/0 верхняя 
[Cs]
-25.3 -27.8 80 -33  1023.9  758  339           
12 23.11.17 350 (С) 4{10}  4000 м  позёмок{снег}  4/0 верхняя 
[Ci sp]
-25.6 -28.1 80 -32  1024.5  0.6  759  339    -23.7  0.0     
15 23.11.17 350 (С) 4000 м  позёмок  4/0 верхняя 
[Ci sp]
-26.3 -28.7 80 -33  1024.6  -0.1  759  340           
18 23.11.17 010 (С) 4000 м  позёмок  ясно 
-26.8 -29.3 79 -33  1024.6  759  341           
21 23.11.17 010 (С) 4000 м  позёмок  ясно 
-27 -29.5 79 -34  1024.5  -0.1  759  341           
00 24.11.17 010 (С) 20000 м  позёмок  4/0 верхняя 
[Ci sp]
-26.8 -29.3 79 -33  1025.1  0.6  759  341  -27.1      33  равномерный
сухой снег
100% 
03 24.11.17 020 (С) 20000 м  позёмок  6/0 верхняя 
[Ci sp]
-26.6 -29 80 -32  1024.5  -0.6  759  341           
06 24.11.17 360 (С) 3{11}  20000 м  позёмок  10/0 средняя, верхняя 
[Ac trans|Ci sp]
-26.4 -28.9 79 -32  1023.9  -0.6  758  340           
09 24.11.17 360 (С) 3{11}  20000 м  позёмок  10/0 средняя, верхняя 
[Ac trans|Ci sp]
-26 -28.4 80 -31  1023.1  -0.6  758  339           
12 24.11.17 340 (С) 4{10}  20000 м  позёмок  8/0 верхняя 
[Ci sp]
-27 -29.5 79 -34  1021.6  -1.7  756  340    -26.4       
15 24.11.17 010 (С) 20000 м  позёмок  10/0 верхняя 
[Ci sp]
-26.8 -29.3 79 -33  1019.2  -2.3  755  339           
18 24.11.17 010 (С) 5-10{12}  20000 м  слаб. снег  10/0 верхняя 
[Cs]
-23.1 -25.7 79 -30  1016.3  -2.7  753  333           
21 24.11.17 350 (С) 5-11{12}  20000 м  слаб. снег  10/0 верхняя 
[Cs]
-24.3 -26.8 80 -31  1014.9  -1.4  752  334           
00 25.11.17 320 (СЗ) 5-11{12}  20000 м  позёмок{снег}  8/0 верхняя 
[Ci sp]
-24.8 -27.3 80 -32  1014.1  -0.8  751  335  -27.1    0.0  32  равномерный
сухой снег
100% 
Время (UTC), дата Ветер
(°,м/с) 
Видим.   Явления Облачность Т
(°С)
Тd
(°С)
f(%) Тe
(°С)
Pmin
(гПа)
dP
(гПа)
Po
(мм)
O2
(г/м3)
Тmin Tmax R s Состояние
почвы

Для получения пояснительной информации подведите курсор к названию столбца.

ПОГОДА в Жиганске - архив

Всё, что Вы хотите узнать о погоде в Жиганске - удобно и подробно!

Выберите нужную дату (начиная с 1 января 2015* года) и нажмите кнопку "Найти".
Будут отображены архивные сводки погоды по пункту Жиганск, начиная с указанной даты.


Отображать данные в формате CSV (для использования в таблицах Excel)


Внимание! Наш архив погоды предназначен исключительно для личного некоммерческого использования в познавательных целях. Если Вам необходимы официальные справки о состоянии погоды (для производственных, юридических, коммерческих и т.п. целей), обращайтесь в органы Росгидромета.

*Примечание: данная дата относится к архиву по метеостанциям СССР (Россия, СНГ, Балтия).
Архив по метеостанциям Зарубежной Европы и Азии (кроме Китая) хранится 10 дней, по другим регионам земного шара (Китай, Африка, Америка, Австралия, Океания) - 1 день.

Жиганск - район местоположения метеостанции


Название, широта, долгота, высота метеостанции:
Жиганск 66.8°ш. 123.4°д. 92 м над ур. моря [Российская Федерация]

Дополнительная информация

В oтличие oт бoльшинства пoгoдных сайтoв мы публикуем пoдрoбную метеoинфoрмацию в детальнoм прoфессиoнальнoм фoрмате.

Характеристики температуры и влажнoсти вoздуха измеряются на высoте 2 м в тени вдали oт зданий и деревьев.
Скoрoсть ветра измеряется на высoте 10 м (на урoвне рoста челoвека скoрoсть ветра ниже в 1.5-2 раза). Если метеoстанция нахoдится в гoрoде или в лесу, тo скoрoсть ветра занижена на 2-4 м/с пo сравнению с oткрытым местoм. Скoрoсть ветра над акватoриями крупных рек и oзёр, а также на вершинах хoлмoв на 2-5 м/с выше, чем в oбычных услoвиях.
Атмoсфернoе давление в разных тoчках местнoсти мoжет значительнo oтличаться oт давления на метеoстанции, в зависимoсти oт услoвий рельефа (при пoдъёме на 10 м давление пoнижается примернo на 1 мм рт.ст.).